Wind_Speed
16 12 7 7 10 11 11 11 12 14 16 19 20 22 23 21 20 21 20 21 22 21 21 22 21 22 23 22 22 21 20 20 19 17 18 18 17 17 15 14 13 13 14
16 15 14 8 6 8 9 9 11 13 16 19 22 24 25 25 25 25 26 26 27 24 23 24 22 22 24 24 24 24 22 22 22 21 18 18 19 17 16 15 13 10 15
13 13 17 16 13 8 9 11 12 14 17 20 22 23 25 25 27 28 28 28 28 28 26 26 25 24 24 25 26 27 25 24 25 24 21 21 21 19 18 17 17 19 20
19 20 19 17 15 11 16 18 19 21 21 21 21 24 28 29 29 29 31 31 29 30 31 30 28 26 26 25 27 26 26 26 26 26 23 22 22 21 19 19 20 21 22
20 23 22 20 10 19 20 21 22 23 21 23 25 24 24 34 33 33 32 33 33 32 33 33 32 30 27 27 28 28 28 29 27 27 27 25 24 24 21 20 20 22 23
22 24 23 20 21 18 22 17 16 16 17 20 22 22 25 29 40 39 37 42 40 36 37 35 33 33 32 31 32 32 31 31 30 30 29 28 25 27 25 23 23 24 24
25 24 26 27 27 19 20 17 16 18 20 21 22 25 27 30 27 32 40 34 44 43 42 41 40 37 35 34 34 35 37 35 34 33 33 30 29 27 29 29 27 27 26
27 28 27 24 20 17 22 19 20 23 26 27 29 32 32 30 33 34 36 37 39 40 41 47 45 44 40 38 39 38 39 39 38 38 37 33 33 31 32 31 30 29 29
28 27 24 19 21 20 20 19 24 26 29 32 35 37 39 35 35 37 40 41 42 42 40 41 44 46 42 42 41 41 41 41 39 38 39 38 37 35 35 34 34 32 31
25 21 21 22 21 18 21 25 28 30 32 34 36 38 40 40 41 43 45 46 47 48 46 44 43 45 41 41 42 42 44 45 42 40 36 36 38 39 40 38 35 34 33
23 21 19 18 19 22 24 28 30 32 33 31 27 27 33 41 45 46 47 50 51 50 49 48 46 43 42 41 40 41 43 43 43 43 42 41 42 45 43 39 39 36 36
18 16 18 19 21 24 28 29 30 30 26 21 21 25 34 39 42 43 46 48 51 54 52 51 48 47 44 43 44 42 40 37 38 36 34 39 29 44 28 33 40 47 42
15 16 19 22 25 28 29 27 26 23 21 23 25 32 38 41 44 39 39 40 42 47 51 52 52 48 45 42 40 41 40 39 36 31 32 28 23 19 21 24 19 39 37
21 21 23 25 28 27 23 20 19 20 21 26 30 37 43 46 43 31 29 32 33 35 38 44 49 49 47 42 40 36 35 35 34 31 30 28 25 24 25 27 29 31 38
21 23 26 26 21 16 15 15 12 16 21 26 30 38 45 46 30 23 19 17 16 18 24 30 37 42 44 44 39 35 32 31 29 29 29 28 27 26 26 27 30 35 34
25 24 18 13 12 11 9 7 10 15 16 20 28 36 43 34 30 17 9 9 11 11 7 8 17 27 35 38 37 35 31 28 28 28 26 26 25 24 20 24 30 24 27
17 13 13 11 10 7 6 9 12 12 10 18 28 37 32 25 23 16 11 12 6 4 2 1 2 3 11 23 27 30 28 27 25 22 19 23 17 21 23 17 20 18 17
15 16 14 12 8 5 7 9 9 9 8 16 32 39 38 27 19 19 14 6 7 7 4 3 4 8 4 7 14 15 14 14 17 16 15 14 18 15 15 14 8 10 23
16 16 15 12 8 5 8 8 8 7 6 5 14 22 31 40 44 23 19 15 11 8 3 4 1 5 8 11 18 10 9 5 9 9 9 10 11 6 10 18 22 16 10
19 19 17 14 11 8 9 8 8 7 6 5 5 12 18 22 28 40 40 29 22 22 21 16 11 8 7 7 7 10 15 15 14 15 16 18 19 19 19 15 11 9 11
21 19 16 14 11 10 10 9 8 7 5 6 6 7 9 15 20 23 28 33 37 23 19 19 20 21 19 17 13 11 18 26 27 21 19 20 16 6 5 9 11 13 11
21 20 18 16 14 14 12 10 7 7 6 4 5 5 5 8 11 13 14 16 17 17 18 20 21 19 18 19 20 20 18 16 13 12 11 6 7 6 9 11 12 11 10
22 21 20 18 18 16 13 11 10 9 7 5 4 4 4 4 6 7 8 9 10 10 9 10 10 10 10 9 8 7 6 5 5 5 5 6 8 10 11 12 12 12 10
22 21 19 18 18 16 14 13 12 10 8 7 6 5 4 3 3 3 5 5 6 7 7 8 8 9 9 8 6 6 4 3 3 3 5 6 7 9 10 11 9 8 7
21 20 19 19 18 16 15 13 11 10 8 8 9 9 7 6 5 3 1 1 2 2 2 3 4 4 5 4 3 2 1 1 2 3 4 6 8 9 9 8 8 9 9
23 19 19 20 17 15 13 13 11 10 10 10 10 10 10 9 8 7 6 4 3 3 3 2 2 1 1 1 2 3 3 3 4 5 5 6 7 8 9 10 11 11 11
Wind_Direction
232 226 232 226 224 232 232 228 231 234 240 244 246 248 249 248 248 251 256 254 253 255 265 264 263 264 268 271 270 274 274 269 268 273 276 278 276 275 280 284 291 286 279
233 229 228 229 226 234 237 233 236 238 243 247 250 251 251 249 247 250 254 256 255 253 254 259 257 258 259 261 266 270 273 272 269 269 270 272 274 278 282 277 271 258 276
244 230 232 230 231 233 250 247 247 246 245 248 256 261 263 262 258 258 256 253 251 247 247 255 257 256 254 254 256 261 264 266 268 267 267 263 267 271 273 270 262 259 265
225 225 232 236 249 237 245 250 249 252 259 265 268 271 266 264 260 259 259 257 254 254 253 250 252 256 259 256 257 257 258 261 266 267 264 259 260 266 272 272 267 262 266
218 229 228 238 241 245 251 252 259 265 275 265 272 274 285 253 261 260 258 257 255 255 254 253 252 249 248 251 253 255 258 260 261 263 261 259 259 262 268 264 267 256 267
218 226 225 231 221 235 244 256 261 269 272 272 273 273 275 277 263 253 264 260 254 256 256 250 249 251 251 248 249 251 251 255 256 258 260 260 258 262 263 266 263 262 266
216 224 224 222 235 242 256 255 267 277 275 276 275 276 274 273 272 261 266 272 252 252 256 255 253 251 251 254 254 255 252 252 255 257 257 259 259 263 262 260 259 263 264
211 223 228 231 241 233 245 250 265 273 276 279 283 283 282 274 267 266 264 267 269 256 262 249 255 252 250 256 256 256 257 257 257 260 260 257 258 260 261 261 261 260 262
212 222 224 235 247 240 250 268 274 277 278 283 287 290 290 286 276 266 262 260 259 257 255 256 256 252 254 254 254 256 258 258 259 261 261 262 260 261 261 261 261 261 262
212 217 227 243 246 259 269 272 276 278 283 288 293 294 293 290 285 280 274 268 260 257 254 252 247 252 254 253 257 261 259 257 259 262 261 261 262 261 260 259 260 259 257
217 227 236 246 258 265 271 276 280 284 289 295 295 297 298 294 288 281 275 268 265 262 258 254 254 254 256 257 260 254 267 255 253 256 258 260 261 261 252 257 257 259 258
228 242 255 264 268 273 275 278 283 288 289 282 295 305 308 310 300 286 275 269 261 257 256 256 254 253 250 251 255 257 261 253 254 251 255 256 259 259 282 273 274 263 256
256 267 261 264 270 275 280 283 285 283 276 277 298 311 314 315 318 297 283 275 267 259 254 252 249 247 247 246 249 253 258 267 276 270 283 274 282 269 286 305 304 253 258
261 261 263 269 275 280 280 280 281 283 282 293 298 308 313 317 320 302 285 278 270 263 257 252 247 242 240 241 244 249 255 260 265 269 270 271 276 276 287 287 295 271 240
264 266 272 275 272 266 266 272 276 293 300 301 303 313 323 327 328 313 300 289 291 285 267 253 244 239 236 236 240 245 250 256 259 265 268 272 273 277 285 289 282 274 231
271 272 266 245 239 249 247 266 303 312 317 330 332 334 339 339 333 327 324 323 324 302 322 312 256 241 233 232 235 242 250 254 254 259 263 266 268 279 276 283 262 248 217
261 235 212 216 215 233 262 296 307 318 343 13 14 3 352 346 351 6 353 335 272 284 209 2 2 258 218 223 229 238 246 246 248 255 247 274 267 271 277 254 211 206 273
221 206 206 202 209 256 299 303 307 319 352 40 42 33 29 24 21 26 18 21 9 33 154 13 284 154 122 211 220 226 228 226 227 253 254 261 261 232 187 201 217 157 160
205 206 209 209 221 271 317 307 310 315 343 50 38 36 32 35 34 36 49 48 53 74 70 82 355 270 215 219 196 230 228 214 231 252 233 203 180 184 166 155 151 160 186
204 210 215 220 238 268 305 303 307 314 328 1 326 5 17 35 37 47 49 46 51 58 56 55 69 92 121 162 157 164 161 157 138 119 122 115 118 133 142 165 196 210 199
216 219 221 230 244 263 285 286 299 304 309 329 349 360 13 28 43 49 53 59 61 65 64 77 89 97 96 96 87 99 96 103 111 122 130 138 153 181 222 216 209 208 208
221 222 225 232 245 259 274 278 288 283 278 295 326 346 2 27 37 38 49 62 67 66 67 70 73 80 94 102 106 110 122 127 133 144 152 190 246 234 208 204 204 209 213
222 223 228 237 245 255 265 269 275 271 263 269 286 306 331 7 42 46 45 60 67 67 64 61 64 71 81 90 100 113 136 170 195 215 216 202 197 199 199 201 205 208 212
221 224 228 233 248 253 261 264 266 261 255 254 255 257 266 294 332 47 57 55 65 70 68 68 71 73 74 78 89 104 124 154 171 178 191 206 212 217 215 210 210 223 237
218 219 222 229 242 249 256 257 257 253 247 246 252 253 248 238 248 265 271 27 45 43 59 67 59 66 75 80 85 87 101 194 232 234 227 228 232 229 230 235 237 241 247
213 211 219 231 240 245 252 258 255 250 244 239 240 246 244 241 237 242 250 248 246 250 259 248 209 172 173 189 188 193 202 215 234 236 238 245 248 245 241 244 249 251 253
Height
3175 3178 3180 3182 3184 3186 3188 3190 3192 3193 3194 3195 3196 3196 3197 3198 3199 3199 3200 3202 3202 3203 3203 3203 3204 3204 3205 3205 3205 3206 3205 3205 3205 3207 3207 3208 3206 3206 3205 3206 3205 3204 3203
3170 3173 3177 3179 3180 3182 3184 3185 3187 3189 3189 3190 3190 3190 3191 3191 3192 3193 3194 3195 3196 3197 3198 3197 3197 3198 3199 3200 3201 3202 3202 3201 3201 3202 3203 3202 3202 3202 3201 3201 3201 3200 3199
3160 3168 3172 3176 3177 3177 3180 3181 3182 3183 3184 3185 3186 3186 3187 3188 3188 3188 3188 3188 3188 3189 3190 3191 3192 3192 3192 3193 3194 3194 3196 3196 3195 3195 3197 3197 3197 3197 3196 3195 3196 3195 3195
3163 3166 3169 3170 3171 3173 3175 3176 3177 3178 3179 3180 3182 3182 3181 3182 3182 3182 3182 3181 3182 3183 3185 3184 3185 3185 3187 3188 3188 3189 3189 3189 3189 3189 3190 3191 3191 3192 3192 3191 3190 3190 3190
3158 3161 3165 3167 3159 3169 3171 3170 3171 3173 3175 3175 3174 3174 3171 3172 3173 3174 3173 3173 3173 3174 3176 3178 3178 3178 3178 3180 3181 3182 3182 3182 3183 3183 3184 3185 3185 3186 3186 3186 3184 3184 3184
3152 3157 3160 3161 3163 3164 3167 3168 3168 3168 3168 3169 3169 3167 3166 3165 3163 3163 3165 3164 3164 3165 3166 3169 3170 3170 3171 3171 3173 3174 3175 3175 3176 3177 3179 3179 3180 3180 3180 3180 3180 3179 3179
3146 3150 3153 3156 3157 3159 3163 3164 3163 3163 3163 3163 3163 3162 3161 3160 3157 3156 3154 3150 3152 3155 3157 3159 3161 3162 3163 3164 3166 3166 3167 3168 3169 3170 3170 3173 3173 3174 3174 3172 3173 3173 3173
3139 3143 3147 3150 3153 3154 3158 3158 3158 3158 3158 3157 3157 3155 3154 3153 3150 3148 3145 3142 3141 3142 3143 3146 3148 3152 3154 3156 3157 3157 3158 3160 3162 3163 3163 3164 3165 3165 3165 3166 3166 3165 3165
3133 3139 3142 3145 3148 3151 3151 3151 3153 3153 3152 3150 3147 3144 3141 3141 3139 3137 3134 3132 3132 3132 3134 3136 3137 3139 3144 3145 3145 3147 3148 3150 3153 3154 3155 3156 3157 3156 3157 3156 3157 3157 3157
3130 3133 3136 3140 3143 3144 3145 3147 3148 3147 3146 3143 3139 3135 3131 3128 3125 3122 3120 3118 3118 3119 3121 3123 3126 3129 3132 3134 3134 3136 3136 3141 3144 3145 3147 3146 3147 3147 3147 3147 3148 3147 3148
3125 3127 3130 3135 3138 3140 3141 3141 3140 3139 3137 3134 3132 3129 3124 3117 3113 3107 3103 3100 3100 3101 3103 3108 3112 3116 3119 3122 3124 3125 3126 3130 3132 3132 3133 3135 3136 3135 3133 3135 3135 3134 3136
3121 3121 3125 3128 3132 3134 3135 3134 3133 3131 3129 3127 3125 3121 3115 3106 3096 3090 3084 3081 3082 3082 3087 3091 3097 3101 3106 3110 3111 3115 3117 3118 3118 3117 3121 3122 3116 3119 3123 3119 3122 3123 3124
3115 3117 3121 3125 3127 3128 3127 3126 3125 3124 3122 3120 3117 3111 3104 3095 3084 3074 3068 3065 3064 3065 3069 3074 3079 3086 3091 3097 3101 3104 3106 3109 3110 3106 3105 3113 3113 3115 3118 3118 3116 3113 3107
3114 3116 3118 3120 3121 3120 3120 3120 3119 3118 3116 3114 3109 3102 3094 3084 3073 3062 3057 3054 3052 3052 3054 3056 3061 3069 3077 3085 3091 3096 3098 3102 3103 3105 3107 3108 3109 3111 3111 3111 3110 3109 3109
3111 3113 3113 3113 3114 3114 3115 3116 3115 3115 3113 3110 3104 3095 3083 3070 3060 3052 3049 3047 3046 3045 3044 3044 3049 3056 3065 3074 3082 3087 3091 3094 3096 3098 3099 3100 3101 3103 3104 3103 3102 3102 3102
3106 3106 3106 3108 3110 3112 3113 3113 3113 3112 3109 3105 3098 3089 3075 3062 3054 3048 3046 3045 3044 3042 3041 3042 3043 3049 3057 3065 3073 3079 3083 3086 3089 3092 3093 3094 3095 3095 3096 3096 3096 3097 3100
3100 3102 3104 3106 3109 3110 3110 3111 3110 3108 3106 3103 3097 3086 3073 3063 3054 3047 3046 3045 3045 3044 3043 3043 3044 3047 3051 3059 3066 3071 3076 3079 3083 3086 3088 3088 3089 3091 3091 3091 3093 3095 3097
3097 3100 3102 3106 3107 3108 3109 3108 3108 3106 3104 3104 3097 3090 3078 3066 3058 3051 3049 3047 3047 3044 3047 3047 3048 3049 3052 3057 3063 3067 3071 3076 3079 3081 3082 3083 3084 3085 3088 3090 3092 3093 3100
3095 3099 3101 3104 3105 3106 3106 3106 3105 3103 3101 3100 3097 3093 3085 3073 3064 3057 3055 3051 3049 3047 3048 3048 3050 3052 3055 3057 3060 3065 3069 3072 3075 3077 3078 3080 3084 3086 3087 3091 3096 3100 3102
3093 3096 3099 3101 3103 3104 3104 3103 3102 3100 3099 3099 3097 3092 3086 3080 3076 3069 3063 3059 3057 3053 3051 3051 3052 3054 3056 3058 3061 3065 3067 3071 3074 3077 3079 3083 3087 3091 3093 3097 3098 3100 3102
3090 3094 3096 3099 3099 3101 3101 3101 3100 3098 3097 3096 3094 3091 3088 3084 3081 3078 3075 3071 3067 3065 3063 3062 3061 3062 3064 3066 3068 3070 3074 3076 3079 3081 3084 3089 3092 3093 3094 3097 3099 3101 3102
3087 3090 3093 3095 3097 3098 3098 3097 3097 3096 3095 3094 3092 3090 3089 3086 3085 3083 3082 3079 3077 3077 3076 3075 3074 3074 3074 3074 3075 3077 3079 3081 3084 3087 3089 3091 3093 3094 3097 3098 3099 3100 3101
3083 3086 3089 3091 3093 3094 3095 3094 3093 3093 3092 3091 3090 3089 3089 3088 3087 3086 3085 3083 3081 3080 3080 3080 3079 3079 3079 3080 3081 3081 3082 3083 3085 3087 3089 3091 3093 3095 3096 3097 3098 3098 3098
3078 3082 3085 3087 3089 3090 3090 3090 3090 3090 3089 3088 3088 3089 3088 3087 3087 3087 3086 3086 3085 3084 3083 3082 3082 3082 3083 3083 3083 3084 3085 3087 3088 3089 3090 3092 3093 3094 3094 3095 3095 3095 3096
3074 3078 3080 3083 3085 3085 3085 3085 3085 3085 3085 3085 3086 3086 3086 3087 3087 3086 3085 3085 3085 3085 3085 3085 3084 3084 3084 3085 3085 3086 3087 3087 3088 3089 3090 3091 3092 3092 3093 3093 3094 3094 3095
3069 3073 3076 3077 3079 3081 3081 3081 3081 3081 3081 3082 3083 3084 3084 3084 3084 3084 3084 3084 3084 3085 3085 3085 3085 3085 3086 3086 3086 3087 3087 3088 3088 3088 3089 3090 3090 3090 3090 3091 3091 3092 3093